[[{"header":{"parameterUnit":"m.s-1","parameterCategory":1,"la1":30.2991,"la2":30.254,"lo1":-89.0895,"lo2":-89.0444,"dy":0.0017,"dx":0.0017,"nx":28,"ny":28,"refTime":"2023-09-12T03:00:00:Z","depth":0,"parameterNumber":2,"parameterNumberName":"U-component_of_WINDS"},"data":[0,0,0,0,0,0,0,0,0,0,0,0,0,0,0,0,0,0,0,0,0,0,0,0,0,0,0,0,0,0,0,0,0,0,0,0,0,0,0,0,0,0,0,0,0,0,0,0,0,0,0,0,0,0,0,0,0,0,0.5771,0.577,0,0.5698,0.5697,0.5697,0.5642,0.5641,0.5641,0.564,0.5562,0.556,0.5559,0,0,0,0,0,0,0,0,0,0,0,0,0,0.5858,0.5856,0.5771,0.577,0.5769,0.5698,0.5697,0.5696,0.5642,0.5641,0.5641,0.564,0.5563,0.5561,0.5559,0,0,0,0,0,0,0,0,0,0,0,0,0,0.5806,0.5856,0.5771,0.5733,0.5729,0.5699,0.5697,0.5696,0.5642,0.5641,0.564,0.564,0.5563,0.5561,0.5558,0.5558,0,0,0.5551,0.555,0,0,0,0,0,0,0,0,0.5809,0.5803,0.574,0.5736,0.5731,0.5678,0.5699,0.565,0.5642,0.5675,0.564,0.5639,0.5601,0.5595,0.5583,0.5554,0.5551,0.5551,0.5549,0.5548,0.5547,0,0,0,0,0,0,0,0.5813,0.5806,0.5742,0.5739,0.5734,0.5719,0.571,0.569,0.5643,0.5672,0.5668,0.566,0.5598,0.5586,0.5581,0.555,0.5551,0.5549,0.5547,0.5546,0.5515,0.5515,0,0,0,0,0,0,0.5823,0.5809,0.5744,0.574,0.5769,0.5718,0.5709,0.5696,0.5643,0.5634,0.5661,0.5658,0.559,0.5584,0.5578,0.5573,0.5548,0.5546,0.5544,0.5514,0.5515,0.5516,0,0,0,0,0,0,0.5825,0.5817,0.5747,0.5773,0.5763,0.5717,0.5703,0.5695,0.5682,0.5635,0.5626,0.5657,0.5589,0.5582,0.5563,0.5569,0.5545,0.5543,0.5513,0.5514,0.5515,0.5563,0,0,0,0,0,0,0.5827,0.5818,0.5819,0.5774,0.5762,0.5735,0.5704,0.5694,0.5679,0.5674,0.5628,0.562,0.5588,0.5567,0.5561,0.5565,0.5541,0.5513,0.5514,0.5515,0.556,0.5565,0.5569,0,0,0,0,0,0.5831,0.5835,0.5819,0.5812,0.5762,0.5736,0.5729,0.5693,0.5679,0.5679,0.5648,0.5621,0.557,0.5566,0.5558,0.5562,0.5512,0.5513,0.5515,0.5558,0.5564,0.5569,0,0,0,0,0,0,0.5881,0.5828,0.581,0.58,0.5773,0.5726,0.5724,0.5701,0.5676,0.5672,0.5628,0.5618,0.5604,0.5581,0.5578,0.5558,0.5537,0.5537,0.5573,0.5578,0.5583,0.5588,0.5539,0,0,0,0,0,0.5891,0.5875,0.583,0.5825,0.5812,0.5771,0.5758,0.5733,0.5703,0.569,0.5658,0.5628,0.5605,0.5591,0.5567,0.5557,0.5545,0.5556,0.5561,0.5565,0.5564,0.5556,0.5559,0.552,0.552,0.552,0,0,0.5911,0.588,0.5873,0.5834,0.581,0.5793,0.5761,0.5745,0.5732,0.5687,0.5668,0.5644,0.5607,0.5593,0.5585,0.5573,0.5573,0.5566,0.557,0.5567,0.5558,0.5561,0.5565,0.5521,0.5521,0.5521,0,0,0.5939,0.5915,0.5908,0.5884,0.5849,0.5821,0.5819,0.5776,0.5759,0.5739,0.5705,0.5688,0.5649,0.5624,0.5606,0.5624,0.5598,0.5618,0.564,0.5632,0.5636,0.5638,0.5643,0.5645,0.5618,0.5618,0.5618,0,0.5968,0.5942,0.5907,0.5892,0.5875,0.5836,0.5827,0.5806,0.5764,0.5752,0.574,0.569,0.5663,0.5642,0.5646,0.5634,0.5629,0.5622,0.5638,0.564,0.5642,0.5646,0.5648,0.5621,0.562,0.562,0.562,0,0.5979,0.5962,0.596,0.5922,0.5905,0.5893,0.5854,0.5841,0.5818,0.5791,0.577,0.5736,0.5704,0.5698,0.5674,0.5672,0.5666,0.5647,0.5625,0.5649,0.5652,0.5653,0.5624,0.5623,0.5623,0.5622,0,0,0.6035,0.5977,0.5977,0.5958,0.5916,0.5901,0.5888,0.5857,0.5846,0.5819,0.5804,0.5773,0.5755,0.5735,0.5708,0.5701,0.5716,0.5683,0.5681,0.5688,0.5709,0.5723,0.5725,0.5699,0.5699,0.5699,0.5711,0,0.6055,0.6029,0.5996,0.5981,0.5964,0.5926,0.5914,0.5885,0.586,0.584,0.5811,0.5789,0.5768,0.5755,0.5747,0.5716,0.5719,0.5715,0.5683,0.5683,0.5692,0.5727,0.5741,0.5754,0.5713,0.5713,0.5713,0,0.6075,0.605,0.6033,0.5991,0.5983,0.5973,0.5942,0.5924,0.5891,0.5872,0.585,0.5822,0.5803,0.5785,0.5758,0.5756,0.5741,0.5724,0.5723,0.5718,0.5698,0.572,0.5758,0.576,0.5715,0.5714,0.5714,0,0.6115,0.6078,0.6062,0.6048,0.5999,0.5993,0.5972,0.5938,0.5922,0.5894,0.5883,0.5853,0.5837,0.5814,0.5777,0.5768,0.5754,0.5733,0.5736,0.5737,0.5733,0.5734,0.5768,0.5727,0.5727,0.5727,0.5727,0,0.614,0.6131,0.608,0.6071,0.6059,0.602,0.6009,0.5985,0.5955,0.5938,0.5904,0.5889,0.5843,0.5822,0.5793,0.5774,0.5767,0.5751,0.5743,0.5753,0.5755,0.5741,0.5739,0.5727,0.5727,0.5727,0.5727,0,0.6182,0.6149,0.6129,0.6085,0.6074,0.6067,0.6028,0.6016,0.5989,0.5969,0.5962,0.5919,0.5892,0.5854,0.5816,0.5797,0.5781,0.577,0.5793,0.5788,0.5793,0.5792,0.5818,0.5818,0.5779,0.578,0.578,0,0.6199,0.6192,0.6147,0.6134,0.6115,0.6095,0.6078,0.604,0.6024,0.5985,0.5978,0.5949,0.5924,0.5883,0.5847,0.5817,0.5804,0.5815,0.5799,0.5809,0.5802,0.5802,0.58,0.5818,0.5819,0.5819,0.582,0,0.6233,0.6216,0.6194,0.6167,0.6148,0.6124,0.6098,0.6089,0.6045,0.6028,0.6001,0.5982,0.5943,0.5914,0.588,0.5856,0.583,0.5825,0.5824,0.5833,0.5847,0.5838,0.5801,0.5824,0.5824,0.5824,0.5823,0.5823,0.6262,0.6252,0.622,0.6196,0.6173,0.6149,0.6136,0.6107,0.6085,0.6051,0.603,0.6004,0.5969,0.592,0.5898,0.5876,0.5865,0.5864,0.5863,0.5863,0.5866,0.5852,0.587,0.587,0.5869,0.5869,0.5869,0,0.6292,0.6269,0.6248,0.6213,0.6194,0.6173,0.6143,0.6128,0.6106,0.6077,0.6053,0.6021,0.5993,0.5955,0.5924,0.5913,0.59,0.5906,0.5906,0.59,0.5878,0.5882,0.5917,0.5917,0.5917,0.5917,0.5917,0.5917,0.6305,0.6288,0.6267,0.6238,0.6214,0.619,0.6174,0.6152,0.6128,0.6095,0.6072,0.6048,0.6015,0.5981,0.5953,0.5943,0.5932,0.5941,0.5927,0.5907,0.5902,0.5898,0.5901,0.594,0.594,0.595,0.595,0.5951]},{"header":{"parameterUnit":"m.s-1","parameterCategory":1,"la1":30.2991,"la2":30.254,"lo1":-89.0895,"lo2":-89.0444,"dy":0.0017,"dx":0.0017,"nx":28,"ny":28,"refTime":"2023-09-12T03:00:00:Z","depth":0,"parameterNumber":3,"parameterNumberName":"V-component_of_WINDS"},"data":[0,0,0,0,0,0,0,0,0,0,0,0,0,0,0,0,0,0,0,0,0,0,0,0,0,0,0,0,0,0,0,0,0,0,0,0,0,0,0,0,0,0,0,0,0,0,0,0,0,0,0,0,0,0,0,0,0,0,2.8882,2.8882,0,2.8887,2.8887,2.8888,2.8822,2.882,2.8818,2.8816,2.8821,2.8822,2.8824,0,0,0,0,0,0,0,0,0,0,0,0,0,2.8813,2.8815,2.8882,2.8882,2.8882,2.8887,2.8887,2.8888,2.8822,2.882,2.8817,2.8815,2.882,2.8822,2.8824,0,0,0,0,0,0,0,0,0,0,0,0,0,2.8833,2.8815,2.8882,2.885,2.8847,2.8887,2.8887,2.8888,2.8822,2.882,2.8817,2.8814,2.8819,2.8822,2.8825,2.8895,0,0,2.8833,2.8834,0,0,0,0,0,0,0,0,2.8832,2.8836,2.8855,2.8852,2.8849,2.8851,2.8865,2.889,2.8823,2.8832,2.8816,2.8813,2.8833,2.8834,2.8841,2.8895,2.8896,2.8833,2.8835,2.8836,2.8837,0,0,0,0,0,0,0,2.8831,2.8835,2.8884,2.8855,2.8852,2.8835,2.8835,2.8869,2.8847,2.8831,2.8826,2.8828,2.8831,2.8839,2.8841,2.8896,2.8833,2.8835,2.8837,2.8838,2.9006,2.9009,0,0,0,0,0,0,2.8834,2.8834,2.8884,2.8884,2.8834,2.8838,2.8838,2.8853,2.8847,2.8843,2.883,2.8825,2.8835,2.8838,2.8841,2.8921,2.8836,2.8838,2.884,2.9003,2.9007,2.901,0,0,0,0,0,0,2.8833,2.8839,2.8884,2.8858,2.8862,2.8842,2.886,2.8855,2.8862,2.8846,2.8842,2.8842,2.8833,2.8837,2.8882,2.892,2.8839,2.8842,2.9,2.9004,2.9008,2.9084,0,0,0,0,0,0,2.8831,2.8839,2.8866,2.8859,2.8864,2.8926,2.8862,2.8857,2.8867,2.886,2.8856,2.8853,2.8831,2.8878,2.8884,2.8923,2.8844,2.8996,2.9002,2.9007,2.9078,2.9091,2.9101,0,0,0,0,0,2.8829,2.8888,2.8868,2.8874,2.8898,2.8928,2.8931,2.8905,2.8871,2.8897,2.8887,2.8853,2.8916,2.8883,2.889,2.893,2.8994,2.9,2.9006,2.9073,2.9088,2.9101,0,0,0,0,0,0,2.89,2.8886,2.8864,2.8923,2.8927,2.8917,2.895,2.8922,2.8936,2.8929,2.8896,2.8896,2.8945,2.8942,2.8906,2.8997,2.8948,2.8957,2.8997,2.9011,2.9022,2.9022,2.8846,0,0,0,0,0,2.8922,2.8948,2.8935,2.8988,2.8991,2.897,2.8982,2.8962,2.8965,2.8967,2.8959,2.8963,2.8983,2.8997,2.9015,2.9078,2.9075,2.9108,2.912,2.9129,2.9136,2.9167,2.9182,2.9031,2.9031,2.9031,0,0,2.8969,2.8964,2.8983,2.9002,2.9003,2.9029,2.8972,2.9003,2.9023,2.8971,2.9013,2.9008,2.901,2.9063,2.9087,2.9062,2.9178,2.9138,2.9145,2.9147,2.9176,2.919,2.9203,2.9035,2.9034,2.9034,0,0,2.9067,2.9067,2.911,2.9112,2.9114,2.91,2.911,2.9104,2.9099,2.914,2.9101,2.9124,2.916,2.9162,2.9168,2.9267,2.9236,2.9273,2.9333,2.9364,2.9376,2.9386,2.942,2.9432,2.9281,2.9281,2.9281,0,2.9124,2.9163,2.9136,2.9169,2.9178,2.9133,2.9175,2.9178,2.9186,2.9193,2.9166,2.9209,2.9207,2.926,2.9284,2.9291,2.9301,2.9273,2.9377,2.9387,2.9396,2.9427,2.944,2.9285,2.9285,2.9284,2.9284,0,2.9233,2.9261,2.9295,2.9304,2.9316,2.9354,2.9331,2.9347,2.9326,2.9315,2.9356,2.9353,2.9368,2.938,2.9359,2.9429,2.9414,2.9382,2.9333,2.9415,2.9444,2.9456,2.9292,2.929,2.9289,2.9288,0,0,2.9375,2.9367,2.938,2.9383,2.9381,2.9402,2.9438,2.9453,2.9467,2.9474,2.9502,2.9533,2.9503,2.951,2.949,2.9517,2.9593,2.9482,2.9481,2.9501,2.9668,2.9691,2.9705,2.9573,2.9575,2.9577,2.9667,0,2.9469,2.9529,2.9505,2.9567,2.9591,2.9548,2.9579,2.9581,2.9571,2.959,2.9579,2.9601,2.9561,2.9564,2.959,2.9578,2.9626,2.9572,2.9597,2.9599,2.9597,2.9721,2.9745,2.983,2.9679,2.968,2.9682,0,2.9587,2.9598,2.9662,2.9655,2.9664,2.9693,2.9704,2.9723,2.9724,2.9715,2.9722,2.9695,2.9729,2.9681,2.9726,2.9689,2.9699,2.9695,2.9697,2.9698,2.9644,2.9722,2.9857,2.9869,2.97,2.9698,2.9697,0,2.9682,2.9713,2.9755,2.9759,2.9752,2.9773,2.9771,2.9769,2.978,2.979,2.9796,2.981,2.9817,2.9828,2.9806,2.9773,2.9853,2.9804,2.9845,2.9846,2.9863,2.9862,2.9999,2.9872,2.9872,2.9871,2.9871,0,2.9788,2.9829,2.9797,2.9823,2.9867,2.9838,2.9882,2.9876,2.9875,2.9898,2.9862,2.9885,2.9854,2.9873,2.9856,2.9895,2.9899,2.9891,2.9886,2.9894,2.9894,2.9898,2.9891,2.9875,2.9874,2.9873,2.9873,0,2.9901,2.9882,2.9925,2.9915,2.9913,2.9946,2.9937,2.996,2.9947,2.9977,2.9982,2.9963,2.9983,2.9962,2.9982,2.997,3.0022,3.0008,3.0021,3.0017,3.0059,3.0055,3.0202,3.0219,3.0083,3.0084,3.0085,0,2.9969,3.0,2.9993,3.0005,3.0006,3.0027,3.0037,3.001,3.0022,3.0025,3.0048,3.0065,3.0078,3.0113,3.01,3.0114,3.01,3.0151,3.0102,3.0108,3.0099,3.0097,3.0099,3.016,3.0162,3.0163,3.0164,0,3.0092,3.0081,3.0097,3.011,3.0123,3.0132,3.0137,3.015,3.0122,3.0137,3.0157,3.0167,3.0187,3.0204,3.0215,3.0212,3.0184,3.018,3.019,3.0197,3.0203,3.0199,3.0046,3.0176,3.0175,3.0174,3.0174,3.0173,3.0184,3.0208,3.0206,3.0225,3.0227,3.0233,3.0253,3.0243,3.026,3.0273,3.0256,3.0282,3.0281,3.0292,3.0293,3.0312,3.029,3.0305,3.0309,3.0312,3.0318,3.0201,3.0314,3.0313,3.0313,3.0313,3.0312,0,3.0303,3.03,3.0317,3.0326,3.0341,3.0313,3.0318,3.0332,3.0354,3.0356,3.0369,3.0392,3.0409,3.0397,3.0411,3.0428,3.0415,3.0433,3.0431,3.043,3.0337,3.0326,3.0443,3.0443,3.0443,3.0443,3.0443,3.0443,3.0367,3.0405,3.0394,3.0433,3.0429,3.0453,3.0458,3.0463,3.0464,3.0492,3.0505,3.0498,3.0494,3.0507,3.0521,3.0517,3.0523,3.0545,3.0537,3.045,3.0437,3.0425,3.0414,3.0547,3.0547,3.0628,3.0628,3.0629]}]]